Regional Weather Roundup
Issued by NWS

Home | Current Version | Previous Version | Graphics & Text | Print | Product List | Glossary On
Versions: 1 2 3 4 5 6 7 8 9 10 11 12 13 14 15 16 17 18 19 20 21 22 23 24 25 26 27 28 29 30 31 32 33 34 35 36 37 38 39 40 41 42 43 44 45 46 47 48 49 50
720
ASUS43 KFSD 260902
RWRSD

WEATHER ROUNDUP FOR SOUTH DAKOTA
NATIONAL WEATHER SERVICE SIOUX FALLS SD
400 AM CDT SUN MAR 26 2017

NOTE: "FAIR" INDICATES FEW OR NO CLOUDS BELOW 12,000 FEET WITH NO
SIGNIFICANT WEATHER AND/OR OBSTRUCTIONS TO VISIBILITY.


SDZ001>005-009-010-012>017-261000-
NORTHWEST AND NORTH CENTRAL SOUTH DAKOTA

CITY           SKY/WX    TMP DP  RH WIND       PRES   REMARKS
BUFFALO          N/A     46  34  62 NE8       29.82S
FAITH            N/A     38  36  92 MISG      29.86F
MOBRIDGE       CLOUDY    38  34  85 SE6       29.91S
$$

SDZ012>016-024>037-041>051-057-063-072>074-261000-
SOUTHWEST AND SOUTH CENTRAL SOUTH DAKOTA

CITY           SKY/WX    TMP DP  RH WIND       PRES   REMARKS
RAPID CTY ARPT CLOUDY    43  34  70 NW12      29.84S
PIERRE         CLOUDY    40  36  86 S9        29.90R
CUSTER         LGT RAIN  42  32  67 CALM      29.85S
ELLSWORTH AFB  LGT RAIN  42  37  81 NW7       29.84S
PHILIP         CLOUDY    39  37  92 E10       29.84F
PINE RIDGE     CLOUDY    48  31  51 W3        29.80F
SPEARFISH      CLOUDY    43  32  65 W8        29.87S
WINNER         CLOUDY    41  38  89 S6        29.90S
$$

SDZ004>011-016>023-039-040-261000-
NORTHEAST SOUTH DAKOTA

CITY           SKY/WX    TMP DP  RH WIND       PRES   REMARKS
ABERDEEN       CLOUDY    35  33  92 E5        29.96S FOG
WATERTOWN      CLOUDY    35  35 100 CALM      29.93F
BROOKINGS      CLOUDY    36  35  96 E5        29.91F FOG
SISSETON         N/A     35  35 100 E3        29.96F
$$

SDZ017-020-022-023-036>040-048>070-261000-
SOUTHEAST SOUTH DAKOTA

CITY           SKY/WX    TMP DP  RH WIND       PRES   REMARKS
SIOUX FALLS    CLOUDY    38  37  97 E6        29.91F FOG
HURON          CLOUDY    39  38  96 E3        29.93F
CHAMBERLAIN    CLOUDY    40  40 100 SE3       29.91S
MITCHELL       CLOUDY    39  38  96 CALM      29.93F FOG
YANKTON        CLOUDY    37  36  93 NE3       29.91F
$$

ABBREVIATIONS USED IN REMARKS
   TC - TEMPERATURE IN CELSIUS
  WCI - WIND CHILL INDEX
   HX - HEAT INDEX
  VSB - VISIBILITY





USA.gov is the U.S. government's official web portal to all federal, state and local government web resources and services.